軌道要素
Epoch 2021 July 5.0 TT = JDT 2459400.5
T 2021 June 6.55399 TT Rudenko
q 0.9622063 (2000.0) P Q
n 0.19186332 Peri. 21.19078 +0.78559063 +0.59473852
a 2.9772004 Node 301.16389 -0.59250239 +0.64359236
e 0.6768084 Incl. 11.50601 -0.17829267 +0.48174160
P 5.14
From 85 observations 2021 June 17-July 12, mean residual 0".6.
|